Time,TemperatureF,DewpointF,PressureIn,WindDirection,WindDirectionDegrees,WindSpeedMPH,WindSpeedGustMPH,Humidity,HourlyPrecipIn,Conditions,Clouds,dailyrainin,SolarRadiationWatts/m^2,SoftwareType,DateUTC
2013-08-22 00:02:00,69.0,44.0,-100.00,NNW,347,2.0,6.0,40,0.00,,,0.00,0.000000,,2013-08-22 07:02:00,
2013-08-22 00:12:00,66.0,44.0,-100.00,NE,35,1.0,5.0,45,0.00,,,0.00,0.000000,,2013-08-22 07:12:00,
2013-08-22 00:42:00,66.0,44.0,-100.00,NE,35,1.0,5.0,45,0.00,,,0.00,0.000000,,2013-08-22 07:42:00,
2013-08-22 00:52:00,66.0,44.0,-100.00,NE,35,1.0,5.0,45,0.00,,,0.00,0.000000,,2013-08-22 07:52:00,
2013-08-22 01:03:00,66.0,44.0,-100.00,NE,35,1.0,5.0,45,0.00,,,0.00,0.000000,,2013-08-22 08:03:00,
2013-08-22 01:43:00,64.0,47.0,-100.00,NW,316,1.0,4.0,54,0.00,,,0.00,0.000000,,2013-08-22 08:43:00,
2013-08-22 01:53:00,64.0,47.0,-100.00,NW,316,1.0,4.0,54,0.00,,,0.00,0.000000,,2013-08-22 08:53:00,
2013-08-22 02:01:00,64.0,47.0,-100.00,NW,316,1.0,4.0,54,0.00,,,0.00,0.000000,,2013-08-22 09:01:00,
2013-08-22 02:11:00,64.0,47.0,-100.00,NW,316,1.0,4.0,54,0.00,,,0.00,0.000000,,2013-08-22 09:11:00,
2013-08-22 02:12:00,63.0,48.0,-100.00,North,359,0.0,2.0,59,0.00,,,0.00,0.000000,,2013-08-22 09:12:00,
2013-08-22 02:43:00,63.0,48.0,-100.00,North,359,0.0,2.0,59,0.00,,,0.00,0.000000,,2013-08-22 09:43:00,
2013-08-22 02:54:00,63.0,48.0,-100.00,North,359,0.0,2.0,59,0.00,,,0.00,0.000000,,2013-08-22 09:54:00,
2013-08-22 03:03:00,63.0,48.0,-100.00,North,359,0.0,2.0,59,0.00,,,0.00,0.000000,,2013-08-22 10:03:00,
2013-08-22 03:12:00,62.0,51.0,-100.00,NW,320,0.0,3.0,66,0.00,,,0.00,0.000000,,2013-08-22 10:12:00,
2013-08-22 03:42:00,62.0,51.0,-100.00,NW,320,0.0,3.0,66,0.00,,,0.00,0.000000,,2013-08-22 10:42:00,
2013-08-22 05:12:00,57.0,51.0,-100.00,WNW,290,0.0,3.0,81,0.00,,,0.00,0.000000,,2013-08-22 12:12:00,
2013-08-22 05:42:00,57.0,51.0,-100.00,WNW,290,0.0,3.0,81,0.00,,,0.00,0.000000,,2013-08-22 12:42:00,
2013-08-22 05:52:00,57.0,51.0,-100.00,WNW,290,0.0,3.0,81,0.00,,,0.00,0.000000,,2013-08-22 12:52:00,
2013-08-22 06:02:00,57.0,51.0,-100.00,WNW,290,0.0,3.0,81,0.00,,,0.00,0.000000,,2013-08-22 13:02:00,
2013-08-22 06:42:00,56.0,52.0,-100.00,NW,311,2.0,4.0,85,0.00,,,0.00,0.000000,,2013-08-22 13:42:00,
2013-08-22 06:52:00,56.0,52.0,-100.00,NW,311,2.0,4.0,85,0.00,,,0.00,0.000000,,2013-08-22 13:52:00,
2013-08-22 07:01:00,56.0,52.0,-100.00,NW,311,2.0,4.0,85,0.00,,,0.00,0.000000,,2013-08-22 14:01:00,
2013-08-22 07:11:00,56.0,52.0,-100.00,NW,311,2.0,4.0,85,0.00,,,0.00,0.000000,,2013-08-22 14:11:00,
2013-08-22 07:42:00,55.0,51.0,-100.00,ENE,72,1.0,4.0,87,0.00,,,0.00,17.000000,,2013-08-22 14:42:00,
2013-08-22 07:52:00,55.0,51.0,-100.00,ENE,72,1.0,4.0,87,0.00,,,0.00,17.000000,,2013-08-22 14:52:00,
2013-08-22 08:01:00,55.0,51.0,-100.00,ENE,72,1.0,4.0,87,0.00,,,0.00,17.000000,,2013-08-22 15:01:00,
2013-08-22 08:11:00,55.0,51.0,-100.00,ENE,72,1.0,4.0,87,0.00,,,0.00,17.000000,,2013-08-22 15:11:00,
2013-08-22 08:12:00,57.0,52.0,-100.00,SSW,205,1.0,4.0,84,0.00,,,0.00,53.000000,,2013-08-22 15:12:00,
2013-08-22 08:43:00,57.0,52.0,-100.00,SSW,205,1.0,4.0,84,0.00,,,0.00,53.000000,,2013-08-22 15:43:00,
2013-08-22 08:55:00,57.0,52.0,-100.00,SSW,205,1.0,4.0,84,0.00,,,0.00,53.000000,,2013-08-22 15:55:00,
2013-08-22 09:05:00,57.0,52.0,-100.00,SSW,205,1.0,4.0,84,0.00,,,0.00,53.000000,,2013-08-22 16:05:00,
2013-08-22 09:12:00,62.0,54.0,-100.00,SSE,161,2.0,4.0,76,0.00,,,0.00,117.000000,,2013-08-22 16:12:00,
2013-08-22 09:43:00,62.0,54.0,-100.00,SSE,161,2.0,4.0,76,0.00,,,0.00,117.000000,,2013-08-22 16:43:00,
2013-08-22 09:54:00,62.0,54.0,-100.00,SSE,161,2.0,4.0,76,0.00,,,0.00,117.000000,,2013-08-22 16:54:00,
2013-08-22 10:02:00,62.0,54.0,-100.00,SSE,161,2.0,4.0,76,0.00,,,0.00,117.000000,,2013-08-22 17:02:00,
2013-08-22 10:12:00,66.0,56.0,-100.00,SSE,165,3.0,5.0,70,0.00,,,0.00,177.000000,,2013-08-22 17:12:00,
2013-08-22 10:43:00,66.0,56.0,-100.00,SSE,165,3.0,5.0,70,0.00,,,0.00,177.000000,,2013-08-22 17:43:00,
2013-08-22 10:53:00,66.0,56.0,-100.00,SSE,165,3.0,5.0,70,0.00,,,0.00,177.000000,,2013-08-22 17:53:00,
2013-08-22 11:02:00,66.0,56.0,-100.00,SSE,165,3.0,5.0,70,0.00,,,0.00,177.000000,,2013-08-22 18:02:00,
2013-08-22 11:52:00,69.0,56.0,-100.00,SSW,201,2.0,6.0,63,0.00,,,0.00,295.000000,,2013-08-22 18:52:00,
2013-08-22 12:02:00,69.0,56.0,-100.00,SSW,201,2.0,6.0,63,0.00,,,0.00,295.000000,,2013-08-22 19:02:00,
2013-08-22 12:11:00,69.0,56.0,-100.00,SSW,201,2.0,6.0,63,0.00,,,0.00,295.000000,,2013-08-22 19:11:00,
2013-08-22 12:42:00,72.0,57.0,-100.00,SSE,163,3.0,5.0,59,0.00,,,0.00,336.000000,,2013-08-22 19:42:00,
2013-08-22 12:53:00,72.0,57.0,-100.00,SSE,163,3.0,5.0,59,0.00,,,0.00,336.000000,,2013-08-22 19:53:00,
2013-08-22 13:02:00,72.0,57.0,-100.00,SSE,163,3.0,5.0,59,0.00,,,0.00,336.000000,,2013-08-22 20:02:00,
2013-08-22 13:11:00,72.0,57.0,-100.00,SSE,163,3.0,5.0,59,0.00,,,0.00,336.000000,,2013-08-22 20:11:00,
2013-08-22 13:12:00,72.0,57.0,-100.00,SE,125,1.0,5.0,59,0.00,,,0.00,258.000000,,2013-08-22 20:12:00,
2013-08-22 13:42:00,72.0,57.0,-100.00,SE,125,1.0,5.0,59,0.00,,,0.00,258.000000,,2013-08-22 20:42:00,
2013-08-22 13:52:00,72.0,57.0,-100.00,SE,125,1.0,5.0,59,0.00,,,0.00,258.000000,,2013-08-22 20:52:00,
2013-08-22 14:02:00,72.0,57.0,-100.00,SE,125,1.0,5.0,59,0.00,,,0.00,258.000000,,2013-08-22 21:02:00,
2013-08-22 14:12:00,72.0,61.0,-100.00,NW,308,1.0,3.0,68,0.00,,,-99.99,175.000000,,2013-08-22 21:12:00,
2013-08-22 14:44:00,72.0,61.0,-100.00,NW,308,1.0,3.0,68,0.00,,,-99.99,175.000000,,2013-08-22 21:44:00,
2013-08-22 14:54:00,72.0,61.0,-100.00,NW,308,1.0,3.0,68,0.00,,,-99.99,175.000000,,2013-08-22 21:54:00,
2013-08-22 15:05:00,72.0,61.0,-100.00,NW,308,1.0,3.0,68,0.00,,,-99.99,175.000000,,2013-08-22 22:05:00,
2013-08-22 15:42:00,73.0,62.0,-100.00,SSE,164,2.0,4.0,68,0.00,,,0.00,154.000000,,2013-08-22 22:42:00,
2013-08-22 15:53:00,73.0,62.0,-100.00,SSE,164,2.0,4.0,68,0.00,,,0.00,154.000000,,2013-08-22 22:53:00,
2013-08-22 16:02:00,73.0,62.0,-100.00,SSE,164,2.0,4.0,68,0.00,,,0.00,154.000000,,2013-08-22 23:02:00,
2013-08-22 16:11:00,73.0,62.0,-100.00,SSE,164,2.0,4.0,68,0.00,,,0.00,154.000000,,2013-08-22 23:11:00,
2013-08-22 16:42:00,79.0,60.0,-100.00,South,188,3.0,7.0,53,0.00,,,0.00,531.000000,,2013-08-22 23:42:00,
2013-08-22 16:52:00,79.0,60.0,-100.00,South,188,3.0,7.0,53,0.00,,,0.00,531.000000,,2013-08-22 23:52:00,
2013-08-22 17:02:00,79.0,60.0,-100.00,South,188,3.0,7.0,53,0.00,,,0.00,531.000000,,2013-08-23 00:02:00,
2013-08-22 17:11:00,79.0,60.0,-100.00,South,188,3.0,7.0,53,0.00,,,0.00,531.000000,,2013-08-23 00:11:00,
2013-08-22 17:42:00,76.0,62.0,-100.00,West,281,2.0,5.0,61,0.00,,,0.00,174.000000,,2013-08-23 00:42:00,
2013-08-22 17:52:00,76.0,62.0,-100.00,West,281,2.0,5.0,61,0.00,,,0.00,174.000000,,2013-08-23 00:52:00,
2013-08-22 18:01:00,76.0,62.0,-100.00,West,281,2.0,5.0,61,0.00,,,0.00,174.000000,,2013-08-23 01:01:00,
2013-08-22 18:11:00,76.0,62.0,-100.00,West,281,2.0,5.0,61,0.00,,,0.00,174.000000,,2013-08-23 01:11:00,
2013-08-22 18:42:00,72.0,60.0,-100.00,SE,146,2.0,6.0,65,0.00,,,0.00,97.000000,,2013-08-23 01:42:00,
2013-08-22 18:52:00,72.0,60.0,-100.00,SE,146,2.0,6.0,65,0.00,,,0.00,97.000000,,2013-08-23 01:52:00,
2013-08-22 19:02:00,72.0,60.0,-100.00,SE,146,2.0,6.0,65,0.00,,,0.00,97.000000,,2013-08-23 02:02:00,
2013-08-22 19:11:00,72.0,60.0,-100.00,SE,146,2.0,6.0,65,0.00,,,0.00,97.000000,,2013-08-23 02:11:00,
2013-08-22 19:43:00,69.0,60.0,-100.00,WNW,298,1.0,4.0,72,0.00,,,0.00,61.000000,,2013-08-23 02:43:00,
2013-08-22 19:52:00,69.0,60.0,-100.00,WNW,298,1.0,4.0,72,0.00,,,0.00,61.000000,,2013-08-23 02:52:00,
2013-08-22 20:02:00,69.0,60.0,-100.00,WNW,298,1.0,4.0,72,0.00,,,0.00,61.000000,,2013-08-23 03:02:00,
2013-08-22 20:11:00,69.0,60.0,-100.00,WNW,298,1.0,4.0,72,0.00,,,0.00,61.000000,,2013-08-23 03:11:00,
2013-08-22 20:12:00,66.0,59.0,-100.00,NNW,341,1.0,4.0,78,0.00,,,0.00,16.000000,,2013-08-23 03:12:00,
2013-08-22 20:44:00,66.0,59.0,-100.00,NNW,341,1.0,4.0,78,0.00,,,0.00,16.000000,,2013-08-23 03:44:00,
2013-08-22 20:55:00,66.0,59.0,-100.00,NNW,341,1.0,4.0,78,0.00,,,0.00,16.000000,,2013-08-23 03:55:00,
2013-08-22 21:04:00,66.0,59.0,-100.00,NNW,341,1.0,4.0,78,0.00,,,0.00,16.000000,,2013-08-23 04:04:00,
2013-08-22 21:12:00,63.0,56.0,-100.00,WNW,287,1.0,6.0,79,0.00,,,0.00,0.000000,,2013-08-23 04:12:00,
2013-08-22 21:43:00,63.0,56.0,-100.00,WNW,287,1.0,6.0,79,0.00,,,0.00,0.000000,,2013-08-23 04:43:00,
2013-08-22 21:54:00,63.0,56.0,-100.00,WNW,287,1.0,6.0,79,0.00,,,0.00,0.000000,,2013-08-23 04:54:00,
2013-08-22 22:03:00,63.0,56.0,-100.00,WNW,287,1.0,6.0,79,0.00,,,0.00,0.000000,,2013-08-23 05:03:00,
2013-08-22 22:12:00,61.0,54.0,-100.00,NW,304,1.0,4.0,79,0.00,,,0.00,0.000000,,2013-08-23 05:12:00,
2013-08-22 22:42:00,61.0,54.0,-100.00,NW,304,1.0,4.0,79,0.00,,,0.00,0.000000,,2013-08-23 05:42:00,
2013-08-22 22:52:00,61.0,54.0,-100.00,NW,304,1.0,4.0,79,0.00,,,0.00,0.000000,,2013-08-23 05:52:00,
2013-08-22 23:02:00,61.0,54.0,-100.00,NW,304,1.0,4.0,79,0.00,,,0.00,0.000000,,2013-08-23 06:02:00,
2013-08-22 23:42:00,59.0,54.0,-100.00,NNE,16,0.0,2.0,83,0.00,,,0.00,0.000000,,2013-08-23 06:42:00,
2013-08-22 23:52:00,59.0,54.0,-100.00,NNE,16,0.0,2.0,83,0.00,,,0.00,0.000000,,2013-08-23 06:52:00,